METAR AND TAF INFORMATION
METAR FOR KPWM
KPWM 211651Z 02003KT 10SM OVC055 22/17 A3022 RMK AO2 SLP232 T02220167
KPWM 211551Z 01007KT 10SM BKN060 BKN075 22/16 A3021 RMK AO2 SLP231 T02220156
KPWM 211451Z 04011G18KT 10SM OVC055 23/15 A3022 RMK AO2 SLP233 SUN DMLY VSBL T02280150 50008
KPWM 211742Z 2118/2218 04009KT P6SM OVC060
FM220800 09007KT 6SM -SHRA OVC020
FM221200 09009KT 6SM -SHRA OVC010

 AIRPORT MAP

 RUNWAY INFORMATION
Runway 11 Runway length 7200 ft Runway width 150 ft
Runway elevation 77 ft Runway displaced threshold 0 ft Runway heading 95
Runway 29 Runway length 7200 ft Runway width 150 ft
Runway elevation 43 ft Runway displaced threshold 0 ft Runway heading 275
Runway 18 Runway length 5001 ft Runway width 150 ft
Runway elevation 45 ft Runway displaced threshold 0 ft Runway heading 163
Runway 36 Runway length 5001 ft Runway width 150 ft
Runway elevation 47 ft Runway displaced threshold 0 ft Runway heading 343

 AIRPORT FREQUENCIES
Type A/D Name APP/DEP Frequency 119.75 MHZ
Type ATIS Name ATIS Frequency 119.05 MHZ
Type CLD Name CLNC DEL Frequency 121.9 MHZ
Type CTAF Name CTAF Frequency 120.9 MHZ
Type GND Name GND Frequency 121.9 MHZ
Type TWR Name TWR Frequency 120.9 MHZ
Type UNIC Name UNICOM Frequency 122.95 MHZ

 AIRPORT NEAR NAVIGATION AIDS
Type NDB Name Orham Frequency 394 KHZ

-